Simultaneous Nadir Overpasses (SNOs) Predictions

Prediction of SNOs between GOES-14 and AQUA Satellite Orbit:

Table of predicted SNOs for the next 14.0 days since TLE Epoch: 1/14/2022
Index Date Time (GOES-14) GOES-14 Lat,Lon AQUA Lat,Lon Distance(km) Time Diff (sec)
1 01/16/2022 08:30:25 0.00,-104.59 -0.30,-103.23 154.43 80
2 01/16/2022 20:51:48 0.00,-104.25 -0.87,-108.41 472.00 80
3 01/18/2022 08:18:13 0.01,-104.59 -0.91,-100.27 491.57 80
4 01/18/2022 20:39:36 -0.00,-104.26 -0.25,-105.44 134.80 80
5 01/20/2022 20:24:44 -0.00,-104.26 0.37,-102.48 202.52 80
6 01/21/2022 08:46:01 -0.00,-104.59 0.64,-107.65 347.57 80
7 01/23/2022 08:33:49 -0.00,-104.59 0.00,-104.69 10.14 80
8 01/25/2022 08:24:17 -0.00,-104.60 -0.64,-101.72 327.49 80
9 01/25/2022 20:45:39 0.01,-104.27 -0.57,-106.89 298.16 80
10 01/27/2022 20:30:47 -0.00,-104.27 0.09,-103.93 38.99 80
